TimeEDT,TemperatureF,Dew PointF,Humidity,Sea Level PressureIn,VisibilityMPH,Wind Direction,Wind SpeedMPH,Gust SpeedMPH,PrecipitationIn,Events,Conditions,WindDirDegrees,DateUTC
12:15 AM,66.2,66.2,100,30.13,7.0,Calm,Calm,-,N/A,,Overcast,0,2013-09-20 04:15:00
12:35 AM,66.2,64.4,94,30.12,7.0,East,3.5,-,N/A,,Overcast,90,2013-09-20 04:35:00
12:55 AM,66.2,64.4,94,30.12,10.0,SE,3.5,-,N/A,,Overcast,140,2013-09-20 04:55:00
1:15 AM,66.2,64.4,94,30.12,10.0,Calm,Calm,-,N/A,,Mostly Cloudy,0,2013-09-20 05:15:00
1:37 AM,66.2,64.4,94,30.13,5.0,WNW,4.6,-,N/A,,Mostly Cloudy,290,2013-09-20 05:37:00
1:55 AM,64.4,64.4,100,30.12,5.0,South,6.9,-,N/A,,Overcast,190,2013-09-20 05:55:00
2:15 AM,64.4,64.4,100,30.12,7.0,South,3.5,-,N/A,,Mostly Cloudy,180,2013-09-20 06:15:00
2:35 AM,64.4,64.4,100,30.12,7.0,West,6.9,-,N/A,,Scattered Clouds,270,2013-09-20 06:35:00
2:57 AM,64.4,64.4,100,30.11,7.0,Calm,Calm,-,N/A,,Clear,0,2013-09-20 06:57:00
3:15 AM,64.4,64.4,100,30.10,7.0,West,5.8,-,N/A,,Clear,270,2013-09-20 07:15:00
3:35 AM,64.4,62.6,94,30.10,5.0,Calm,Calm,-,N/A,,Clear,0,2013-09-20 07:35:00
3:57 AM,62.6,62.6,100,30.09,7.0,Calm,Calm,-,N/A,,Clear,0,2013-09-20 07:57:00
4:15 AM,62.6,62.6,100,30.10,2.5,Calm,Calm,-,N/A,,Scattered Clouds,0,2013-09-20 08:15:00
4:36 AM,62.6,62.6,100,30.10,7.0,West,3.5,-,N/A,,Scattered Clouds,280,2013-09-20 08:36:00
4:56 AM,62.6,62.6,100,30.10,5.0,West,4.6,-,N/A,,Clear,280,2013-09-20 08:56:00
5:16 AM,62.6,62.6,100,30.10,4.0,NW,3.5,-,N/A,,Mostly Cloudy,320,2013-09-20 09:16:00
5:36 AM,62.6,62.6,100,30.09,7.0,WNW,4.6,-,N/A,,Mostly Cloudy,290,2013-09-20 09:36:00
5:56 AM,62.6,60.8,94,30.10,7.0,West,5.8,-,N/A,,Mostly Cloudy,280,2013-09-20 09:56:00
6:15 AM,62.6,60.8,94,30.09,5.0,Calm,Calm,-,N/A,,Scattered Clouds,0,2013-09-20 10:15:00
6:35 AM,62.6,62.6,100,30.10,7.0,WNW,3.5,-,N/A,,Clear,290,2013-09-20 10:35:00
6:55 AM,62.6,60.8,94,30.10,5.0,Calm,Calm,-,N/A,,Clear,0,2013-09-20 10:55:00
7:15 AM,61.9,61.3,98,30.09,7.0,Calm,Calm,-,N/A,,Clear,0,2013-09-20 11:15:00
7:35 AM,62.2,61.5,97,30.10,5.0,Calm,Calm,-,N/A,,Clear,0,2013-09-20 11:35:00
7:55 AM,62.6,61.9,97,30.10,5.0,Calm,Calm,-,N/A,,Clear,0,2013-09-20 11:55:00
8:15 AM,64.0,62.6,95,30.10,5.0,WNW,5.8,-,N/A,,Clear,290,2013-09-20 12:15:00
8:35 AM,64.6,63.1,95,30.10,7.0,Calm,Calm,-,N/A,,Clear,0,2013-09-20 12:35:00
8:55 AM,65.5,63.7,94,30.10,10.0,Calm,Calm,-,N/A,,Clear,0,2013-09-20 12:55:00
9:15 AM,67.5,64.6,90,30.10,10.0,South,4.6,-,N/A,,Clear,190,2013-09-20 13:15:00
9:35 AM,68.9,65.1,88,30.10,10.0,Calm,Calm,-,N/A,,Clear,0,2013-09-20 13:35:00
9:55 AM,70.9,65.7,83,30.10,10.0,Calm,Calm,-,N/A,,Clear,0,2013-09-20 13:55:00
10:15 AM,73.2,66.4,79,30.10,10.0,Calm,Calm,-,N/A,,Clear,0,2013-09-20 14:15:00
10:35 AM,73.8,66.2,77,30.10,10.0,Calm,Calm,-,N/A,,Scattered Clouds,0,2013-09-20 14:35:00
10:55 AM,75.2,65.5,72,30.09,10.0,Calm,Calm,-,N/A,,Clear,0,2013-09-20 14:55:00
11:15 AM,77.0,65.7,68,30.10,10.0,Calm,Calm,-,N/A,,Clear,0,2013-09-20 15:15:00
11:35 AM,77.5,66.7,69,30.09,10.0,South,3.5,-,N/A,,Clear,170,2013-09-20 15:35:00
11:55 AM,79.0,66.7,66,30.08,10.0,South,3.5,-,N/A,,Scattered Clouds,170,2013-09-20 15:55:00
12:15 PM,80.2,66.2,62,30.07,10.0,South,3.5,-,N/A,,Scattered Clouds,170,2013-09-20 16:15:00
12:35 PM,80.2,64.9,59,30.06,10.0,Calm,Calm,-,N/A,,Clear,0,2013-09-20 16:35:00
12:55 PM,80.2,64.9,59,30.06,10.0,Calm,Calm,-,N/A,,Clear,0,2013-09-20 16:55:00
1:15 PM,81.3,65.3,58,30.06,10.0,West,4.6,-,N/A,,Scattered Clouds,260,2013-09-20 17:15:00
1:35 PM,81.7,66.0,59,30.05,10.0,WSW,3.5,-,N/A,,Scattered Clouds,250,2013-09-20 17:35:00
1:55 PM,81.9,66.2,59,30.03,10.0,SW,3.5,-,N/A,,Scattered Clouds,230,2013-09-20 17:55:00
2:15 PM,82.4,65.5,56,30.02,10.0,South,3.5,17.3,N/A,,Scattered Clouds,190,2013-09-20 18:15:00
2:35 PM,82.9,64.9,54,30.02,10.0,SW,3.5,-,N/A,,Scattered Clouds,220,2013-09-20 18:35:00
2:55 PM,82.0,65.3,57,30.01,10.0,South,4.6,-,N/A,,Scattered Clouds,190,2013-09-20 18:55:00
3:15 PM,83.7,65.1,53,30.00,10.0,South,4.6,-,N/A,,Scattered Clouds,170,2013-09-20 19:15:00
3:35 PM,82.6,64.8,55,29.99,10.0,WSW,5.8,-,N/A,,Clear,240,2013-09-20 19:35:00
3:55 PM,84.0,65.1,53,29.98,10.0,South,5.8,-,N/A,,Scattered Clouds,170,2013-09-20 19:55:00
4:15 PM,82.4,64.6,55,29.98,10.0,SW,3.5,-,N/A,,Scattered Clouds,220,2013-09-20 20:15:00
4:35 PM,82.6,65.5,56,29.97,10.0,SSW,3.5,-,N/A,,Clear,200,2013-09-20 20:35:00
4:55 PM,82.8,64.2,53,29.96,10.0,SSW,4.6,-,N/A,,Clear,200,2013-09-20 20:55:00
5:15 PM,82.9,63.9,52,29.96,10.0,SSW,5.8,-,N/A,,Clear,200,2013-09-20 21:15:00
5:35 PM,82.6,64.6,54,29.96,10.0,Calm,Calm,-,N/A,,Clear,0,2013-09-20 21:35:00
5:55 PM,82.2,65.1,56,29.97,10.0,SW,4.6,-,N/A,,Clear,220,2013-09-20 21:55:00
6:15 PM,80.6,65.1,59,29.97,10.0,SSW,4.6,-,N/A,,Clear,210,2013-09-20 22:15:00
6:35 PM,79.7,65.8,62,29.97,10.0,Calm,Calm,-,N/A,,Clear,0,2013-09-20 22:35:00
6:55 PM,78.6,65.7,64,29.96,10.0,SW,3.5,-,N/A,,Clear,220,2013-09-20 22:55:00
7:15 PM,77.7,65.5,66,29.96,10.0,Calm,Calm,-,N/A,,Clear,0,2013-09-20 23:15:00
7:55 PM,75.2,66.2,73,29.96,10.0,Calm,Calm,-,N/A,,Clear,0,2013-09-20 23:55:00
8:15 PM,73.4,66.2,78,29.96,10.0,Calm,Calm,-,N/A,,Clear,0,2013-09-21 00:15:00
8:35 PM,73.4,66.2,78,29.97,10.0,ESE,3.5,-,N/A,,Clear,120,2013-09-21 00:35:00
8:55 PM,73.4,66.2,78,29.97,10.0,Calm,Calm,-,N/A,,Clear,0,2013-09-21 00:55:00
9:15 PM,71.6,66.2,83,29.97,10.0,Calm,Calm,-,N/A,,Clear,0,2013-09-21 01:15:00
9:35 PM,69.8,66.2,88,29.98,10.0,Calm,Calm,-,N/A,,Clear,0,2013-09-21 01:35:00
9:55 PM,69.8,66.2,88,29.98,10.0,NW,3.5,-,N/A,,Clear,310,2013-09-21 01:55:00
10:15 PM,69.8,66.2,88,29.98,10.0,Calm,Calm,-,N/A,,Clear,0,2013-09-21 02:15:00
10:35 PM,69.8,66.2,88,29.97,10.0,Calm,Calm,-,N/A,,Clear,0,2013-09-21 02:35:00
10:55 PM,69.8,66.2,88,29.97,10.0,East,9.2,-,N/A,,Clear,90,2013-09-21 02:55:00
11:15 PM,68.0,66.2,94,29.97,10.0,Calm,Calm,-,N/A,,Clear,0,2013-09-21 03:15:00
11:35 PM,68.0,66.2,94,29.97,10.0,Calm,Calm,-,N/A,,Clear,0,2013-09-21 03:35:00
11:55 PM,66.2,64.4,94,29.97,7.0,SE,3.5,-,N/A,,Clear,130,2013-09-21 03:55:00